Date String (YYYY-MM-DD hh:mm:ss) UTC,Instrument flags,Ambient pressure (hPa),Sample flow (lpm),Bypass flow (lpm),Sample temperature (°C),Ambient temperature (°C),ASC tube jacket temperature (°C),LED temperature (°C),Box temperature (°C),Sample RH (%),Span deviation,Mass concentration (μg/m³),Mass concentration (μg/m³),Mass concentration (μg/m³)
DateTimeUTC,F1_M11,P_M11,Q1_M11,Q2_M11,T1_M11,T2_M11,T3_M11,T4_M11,T5_M11,U1_M11,ZSPAN_M11,X2_M11,X0_M11,X1_M11
2022-04-14 03:00:00,,0821.9,5.02,0.00,22.4,22.6,00.0,31.2,24.4,09.8,0000.0,0002.10,0006.02,0001.15
2022-04-14 03:01:00,,0821.9,4.99,0.00,22.4,22.4,00.0,31.2,24.4,09.8,0000.0,0002.09,0005.41,0001.14
2022-04-14 03:02:00,,0822.0,5.00,0.00,22.4,22.2,00.0,31.2,24.3,09.7,0000.0,0002.11,0005.72,0001.16
2022-04-14 03:03:00,,0822.0,5.01,0.00,22.4,22.1,00.0,31.2,24.3,09.7,0000.0,0002.13,0006.01,0001.16
2022-04-14 03:04:00,,0822.1,4.98,0.00,22.4,22.0,00.0,31.2,24.3,09.7,0000.0,0002.16,0006.04,0001.17
2022-04-14 03:05:00,,0822.1,5.00,0.00,22.4,21.9,00.0,31.3,24.3,09.5,0000.0,0002.13,0005.93,0001.19
2022-04-14 03:06:00,,0822.1,5.01,0.00,22.4,21.8,00.0,31.3,24.3,09.5,0000.0,0002.10,0005.44,0001.19
2022-04-14 03:07:00,,0822.2,4.99,0.00,22.4,21.8,00.0,31.3,24.3,09.5,0000.0,0002.09,0005.75,0001.19
2022-04-14 03:08:00,,0822.2,5.01,0.00,22.4,21.8,00.0,31.3,24.3,09.6,0000.0,0002.14,0005.81,0001.19
2022-04-14 03:09:00,,0822.2,5.00,0.00,22.4,21.7,00.0,31.3,24.3,09.6,0000.0,0002.14,0006.04,0001.20
2022-04-14 03:10:00,,0822.2,5.00,0.00,22.4,21.7,00.0,31.3,24.3,09.6,0000.0,0002.19,0006.24,0001.19
2022-04-14 03:11:00,,0822.2,5.00,0.00,22.4,21.7,00.0,31.3,24.3,09.6,0000.0,0002.18,0006.19,0001.19
2022-04-14 03:12:00,,0822.2,5.00,0.00,22.4,21.7,00.0,31.3,24.3,09.6,0000.0,0002.24,0006.34,0001.19
2022-04-14 03:13:00,,0822.3,5.00,0.00,22.4,21.6,00.0,31.3,24.3,09.5,0000.0,0002.22,0006.04,0001.18
2022-04-14 03:14:00,,0822.3,5.02,0.00,22.4,21.6,00.0,31.3,24.3,09.5,0000.0,0002.20,0006.31,0001.18
2022-04-14 03:15:00,,0822.3,5.00,0.00,22.4,21.6,00.0,31.3,24.3,09.3,0000.0,0002.23,0007.42,0001.20
2022-04-14 03:16:00,,0822.4,5.00,0.00,22.4,21.6,00.0,31.3,24.3,09.3,0000.0,0002.29,0007.48,0001.25
2022-04-14 03:17:00,,0822.3,4.99,0.00,22.4,21.6,00.0,31.3,24.2,09.4,0000.0,0002.31,0007.56,0001.28
2022-04-14 03:18:00,,0822.4,5.00,0.00,22.4,21.6,00.0,31.3,24.2,09.4,0000.0,0002.30,0007.91,0001.30
2022-04-14 03:19:00,,0822.3,5.00,0.00,22.4,21.6,00.0,31.3,24.2,09.5,0000.0,0002.33,0008.22,0001.35
2022-04-14 03:20:00,,0822.3,5.01,0.00,22.4,21.6,00.0,31.3,24.2,09.5,0000.0,0002.37,0008.15,0001.41
2022-04-14 03:21:00,,0822.3,5.00,0.00,22.4,21.6,00.0,31.3,24.2,09.5,0000.0,0002.42,0008.01,0001.48
2022-04-14 03:22:00,,0822.3,5.00,0.00,22.4,21.6,00.0,31.3,24.2,09.4,0000.0,0002.51,0008.09,0001.54
2022-04-14 03:23:00,,0822.3,5.00,0.00,22.4,21.5,00.0,31.3,24.2,09.5,0000.0,0002.54,0008.08,0001.56
2022-04-14 03:24:00,,0822.3,5.00,0.00,22.4,21.5,00.0,31.3,24.2,09.6,0000.0,0002.56,0008.13,0001.57
2022-04-14 03:25:00,,0822.3,5.00,0.00,22.4,21.5,00.0,31.3,24.2,09.6,0000.0,0002.61,0008.03,0001.58
2022-04-14 03:26:00,,0822.3,5.00,0.00,22.4,21.5,00.0,31.3,24.2,09.7,0000.0,0002.64,0008.07,0001.57
2022-04-14 03:27:00,,0822.3,5.00,0.00,22.4,21.5,00.0,31.4,24.2,09.6,0000.0,0002.60,0008.12,0001.53
2022-04-14 03:28:00,,0822.3,5.00,0.00,22.4,21.5,00.0,31.3,24.2,09.6,0000.0,0002.52,0007.95,0001.49
2022-04-14 03:29:00,,0822.3,5.00,0.00,22.4,21.5,00.0,31.3,24.2,09.5,0000.0,0002.49,0007.61,0001.45
2022-04-14 03:30:00,,0822.3,5.00,0.00,22.4,21.5,00.0,31.3,24.2,09.6,0000.0,0002.49,0007.63,0001.42
2022-04-14 03:31:00,,0822.3,5.00,0.00,22.4,21.5,00.0,31.3,24.2,09.7,0000.0,0002.40,0007.49,0001.36
2022-04-14 03:32:00,,0822.3,5.00,0.00,22.4,21.5,00.0,31.3,24.2,09.7,0000.0,0002.29,0007.37,0001.28
2022-04-14 03:33:00,,0822.3,5.01,0.00,22.4,21.5,00.0,31.3,24.2,09.7,0000.0,0002.21,0007.39,0001.21
2022-04-14 03:34:00,,0822.3,5.00,0.00,22.4,21.5,00.0,31.3,24.2,09.8,0000.0,0002.21,0007.87,0001.19
2022-04-14 03:35:00,,0822.3,4.99,0.00,22.4,21.5,00.0,31.3,24.2,09.8,0000.0,0002.24,0007.97,0001.18
2022-04-14 03:36:00,,0822.4,5.00,0.00,22.4,21.5,00.0,31.3,24.2,09.7,0000.0,0002.17,0007.87,0001.18
2022-04-14 03:37:00,,0822.5,5.00,0.00,22.4,21.5,00.0,31.3,24.2,09.7,0000.0,0002.10,0006.79,0001.17
2022-04-14 03:38:00,,0822.4,5.00,0.00,22.4,21.5,00.0,31.3,24.2,09.8,0000.0,0002.07,0006.49,0001.16
2022-04-14 03:39:00,,0822.5,5.00,0.00,22.4,21.5,00.0,31.3,24.2,09.8,0000.0,0002.05,0006.74,0001.15
2022-04-14 03:40:00,,0822.5,5.00,0.00,22.4,21.5,00.0,31.3,24.2,09.7,0000.0,0002.06,0006.28,0001.15
2022-04-14 03:41:00,,0822.5,5.00,0.00,22.4,21.5,00.0,31.3,24.2,09.7,0000.0,0001.98,0005.25,0001.14
2022-04-14 03:42:00,,0822.5,5.00,0.00,22.4,21.5,00.0,31.3,24.2,09.7,0000.0,0001.99,0005.41,0001.14
2022-04-14 03:43:00,,0822.5,5.00,0.00,22.4,21.5,00.0,31.3,24.2,09.8,0000.0,0002.03,0006.10,0001.15
2022-04-14 03:44:00,,0822.5,4.99,0.00,22.4,21.5,00.0,31.3,24.2,09.8,0000.0,0002.11,0006.38,0001.16
2022-04-14 03:45:00,,0822.4,5.01,0.00,22.4,21.5,00.0,31.3,24.2,09.8,0000.0,0002.07,0005.36,0001.17
2022-04-14 03:46:00,,0822.4,5.00,0.00,22.4,21.5,00.0,31.3,24.2,09.8,0000.0,0002.03,0005.67,0001.17
2022-04-14 03:47:00,,0822.5,5.00,0.00,22.4,21.5,00.0,31.3,24.2,09.9,0000.0,0002.02,0005.70,0001.16
2022-04-14 03:48:00,,0822.4,5.00,0.00,22.4,21.5,00.0,31.3,24.2,09.8,0000.0,0002.09,0005.94,0001.16
2022-04-14 03:49:00,,0822.5,5.00,0.00,22.4,21.5,00.0,31.3,24.2,09.8,0000.0,0002.07,0006.32,0001.17
2022-04-14 03:50:00,,0822.5,4.99,0.00,22.4,21.5,00.0,31.3,24.2,09.7,0000.0,0002.05,0006.07,0001.17
2022-04-14 03:51:00,,0822.5,5.01,0.00,22.4,21.4,00.0,31.3,24.2,09.7,0000.0,0002.05,0006.36,0001.18
2022-04-14 03:52:00,,0822.4,5.00,0.00,22.4,21.4,00.0,31.3,24.2,09.7,0000.0,0002.05,0007.38,0001.20
2022-04-14 03:53:00,,0822.5,5.00,0.00,22.4,21.4,00.0,31.3,24.2,09.7,0000.0,0002.06,0007.71,0001.19
2022-04-14 03:54:00,,0822.5,5.00,0.00,22.4,21.4,00.0,31.3,24.2,09.6,0000.0,0002.10,0007.49,0001.20
2022-04-14 03:55:00,,0822.5,5.00,0.00,22.4,21.4,00.0,31.3,24.2,09.6,0000.0,0002.04,0007.34,0001.21
2022-04-14 03:56:00,,0822.5,4.99,0.00,22.4,21.4,00.0,31.3,24.2,09.6,0000.0,0001.98,0007.37,0001.21
2022-04-14 03:57:00,,0822.5,5.00,0.00,22.4,21.4,00.0,31.3,24.2,09.5,0000.0,0001.96,0007.21,0001.20
2022-04-14 03:58:00,,0822.4,5.00,0.00,22.4,21.4,00.0,31.3,24.1,09.5,0000.0,0001.99,0007.91,0001.20
2022-04-14 03:59:00,,0822.3,5.01,0.00,22.4,21.4,00.0,31.3,24.1,09.4,0000.0,0001.99,0008.03,0001.21
